Torna al catalogo

GEESAT 1-04

AttivoComunicazioniLEO
NORAD 52788·PAYLOAD·🇨🇳 China

Lanciato Jun 2, 2022 da Xichang Satellite Launch Center

Loading…

Prossimi Passaggi (prossime 24 ore)

TLE

AggiornatoSource: Space-Track

Epoca: Sep 14, 2026, 21:09 UTC

1 52788U 22058D   26257.88189010  .00001287  00000-0  19011-3 0  9997
2 52788  50.0040 148.8251 0009355 130.3142 229.8614 14.81596609233229

Traccia GEESAT 1-04 in tempo reale con AllMySat

Download on the App Store